San Luis Obispo, CA

2:22 AM PDT on April 27, 2018 (GMT -0700)
San Luis Obispo County-McChesney

Weather History for KSBP - December, 2012

Change the Weather History Date:

Sunday, December 2, 2012

  Actual Average Record
Temperature  
Mean Temperature 60 °F -  
Max Temperature 63 °F 67 °F 84 °F (1959)
Min Temperature 57 °F 42 °F 33 °F (1978)
Degree Days  
Heating Degree Days 5    
Growing Degree Days 10 (Base 50)    
Moisture  
Dew Point 58 °F    
Average Humidity 93    
Maximum Humidity 100    
Minimum Humidity 88    
Precipitation  
Precipitation 0.60 in - - ()
Sea Level Pressure  
Sea Level Pressure 30.05 in    
Wind  
Wind Speed 7 mph (SSE)    
Max Wind Speed 17 mph    
Max Gust Speed 31 mph    
Visibility 6 miles    
Events Rain    
Averages and records for this station are not official NWS values.
T = Trace of Precipitation, MM = Missing Value Source: NWS Daily Summary

Daily Weather History Graph

Daily Weather History Graph

Search for Another Location

Airport or City:

Astronomy

Dec. 02, 2012 Rise Set
Actual Time 6:54 AM PST 4:50 PM PST
Civil Twilight 6:26 AM PST 5:18 PM PST
Nautical Twilight 5:54 AM PST 5:49 PM PST
Astronomical Twilight 5:24 AM PST 6:20 PM PST
Moon 8:38 PM PST (12/2) 9:50 AM PST (12/2)
Length of Visible Light 10h 51m
Length of Day
9h 55m
Waning Gibbous, 85% of the Moon is Illuminated
Dec 2
Waning Gibbous
Dec 6
Last Quarter
Dec 13
New
Dec 19
First Quarter
Dec 28
Full

Hourly Weather History & Observations

Time (PST) Temp. Dew Point Humidity Pressure Visibility Wind Dir Wind Speed Gust Speed Precip Events Conditions
12:04 AM 60.8 °F 57.2 °F 88% 30.07 in 10.0 mi SSE 8.1 mph - N/A   Overcast
12:18 AM 60.8 °F 57.2 °F 88% 30.08 in 10.0 mi South 4.6 mph - N/A   Overcast
12:56 AM 60.1 °F 57.9 °F 93% 30.08 in 10.0 mi Calm Calm - N/A   Overcast
1:10 AM 60.8 °F 57.2 °F 88% 30.08 in 10.0 mi SE 3.5 mph - N/A   Overcast
1:31 AM 60.8 °F 57.2 °F 88% 30.07 in 10.0 mi SE 6.9 mph - N/A   Overcast
1:38 AM 60.8 °F 57.2 °F 88% 30.07 in 9.0 mi Calm Calm - N/A   Overcast
1:56 AM 60.1 °F 57.9 °F 93% 30.07 in 9.0 mi SSW 3.5 mph - 0.00 in Rain Light Rain
2:09 AM 59.0 °F 57.2 °F 94% 30.07 in 2.5 mi SSE 5.8 mph - 0.01 in Rain Light Rain
2:38 AM 59.0 °F 57.2 °F 94% 30.07 in 1.8 mi SE 5.8 mph - 0.03 in Rain Light Rain
2:46 AM 59.0 °F 57.2 °F 94% 30.06 in 2.5 mi ESE 6.9 mph - 0.03 in Rain Light Rain
2:53 AM 59.0 °F 57.2 °F 94% 30.06 in 6.0 mi ESE 9.2 mph - 0.03 in   Overcast
2:56 AM 59.0 °F 57.9 °F 96% 30.06 in 8.0 mi SE 9.2 mph - 0.03 in   Overcast
3:12 AM 59.0 °F 57.2 °F 94% 30.06 in 1.8 mi SE 10.4 mph - 0.01 in Rain Light Rain
3:14 AM 59.0 °F 57.2 °F 94% 30.06 in 2.0 mi SE 10.4 mph - 0.01 in Rain Light Rain
3:32 AM 59.0 °F 57.2 °F 94% 30.06 in 5.0 mi SE 9.2 mph - 0.01 in   Overcast
3:42 AM 59.0 °F 57.2 °F 94% 30.06 in 5.0 mi SE 9.2 mph - 0.01 in   Overcast
3:56 AM 59.0 °F 57.9 °F 96% 30.05 in 10.0 mi SE 8.1 mph - 0.01 in   Overcast
4:19 AM 59.0 °F 57.2 °F 94% 30.05 in 2.0 mi SE 9.2 mph - 0.01 in Rain Light Rain
4:56 AM 59.0 °F 57.9 °F 96% 30.04 in 2.0 mi SE 8.1 mph - 0.07 in Rain Rain
5:07 AM 59.0 °F 57.2 °F 94% 30.05 in 3.0 mi SE 8.1 mph - 0.01 in Rain Light Rain
5:10 AM 59.0 °F 57.2 °F 94% 30.05 in 2.5 mi SE 10.4 mph - 0.01 in Rain Light Rain
5:34 AM 59.0 °F 57.2 °F 94% 30.05 in 4.0 mi SSE 9.2 mph - 0.04 in Rain Light Rain
5:41 AM 59.0 °F 57.2 °F 94% 30.05 in 2.5 mi SSE 8.1 mph - 0.04 in Rain Light Rain
5:56 AM 60.1 °F 57.9 °F 93% 30.04 in 4.0 mi SSE 6.9 mph - 0.05 in Rain Light Rain
6:03 AM 60.8 °F 57.2 °F 88% 30.05 in 2.0 mi SSE 8.1 mph - 0.00 in Rain Light Rain
6:56 AM 60.1 °F 59.0 °F 96% 30.06 in 2.0 mi South 9.2 mph - 0.04 in   Overcast
8:56 AM 63.0 °F 60.1 °F 90% 30.08 in 4.0 mi SSW 8.1 mph - 0.00 in   Overcast
9:56 AM 63.0 °F 60.1 °F 90% 30.09 in 10.0 mi SW 6.9 mph - N/A   Overcast
11:56 AM 63.0 °F 60.1 °F 90% 30.04 in 4.0 mi SSW 15.0 mph 20.7 mph 0.00 in Rain Light Rain
12:56 PM 63.0 °F 60.1 °F 90% 30.02 in 4.0 mi SSW 13.8 mph 21.9 mph 0.05 in Rain Rain
1:01 PM 62.6 °F 60.8 °F 94% 30.02 in 1.2 mi SSW 16.1 mph 31.1 mph 0.02 in Rain Heavy Rain
1:08 PM 62.6 °F 60.8 °F 94% 30.01 in 1.2 mi SSW 17.3 mph 31.1 mph 0.03 in Rain Rain
1:56 PM 62.1 °F 60.1 °F 93% 30.01 in 2.0 mi SSW 13.8 mph 26.5 mph 0.22 in Rain Rain
2:56 PM 62.1 °F 60.1 °F 93% 30.00 in 2.5 mi SSW 13.8 mph 20.7 mph 0.09 in Rain Light Rain
3:31 PM 62.6 °F 60.8 °F 94% 30.00 in 1.8 mi SSW 10.4 mph 20.7 mph 0.04 in Rain Light Rain
4:36 PM 62.6 °F 60.8 °F 94% 30.01 in 1.8 mi SW 6.9 mph - 0.06 in Rain Light Rain
5:56 PM 62.1 °F 61.0 °F 96% 30.01 in 1.8 mi SW 6.9 mph - 0.04 in   Overcast
6:03 PM 62.6 °F 60.8 °F 94% 30.02 in 4.0 mi SSW 4.6 mph - N/A   Overcast
6:56 PM 62.1 °F 61.0 °F 96% 30.02 in 7.0 mi SSE 4.6 mph - 0.00 in Rain Light Rain
7:56 PM 62.1 °F 60.1 °F 93% 30.03 in 10.0 mi Calm Calm - 0.00 in   Overcast
8:47 PM 60.8 °F 60.8 °F 100% 30.04 in 10.0 mi Calm Calm - N/A   Overcast
8:56 PM 61.0 °F 60.1 °F 97% 30.04 in 10.0 mi South 3.5 mph - N/A   Overcast
9:03 PM 60.8 °F 60.8 °F 100% 30.05 in 10.0 mi Calm Calm - N/A   Overcast
9:12 PM 60.8 °F 59.0 °F 94% 30.06 in 9.0 mi NW 5.8 mph - N/A   Overcast
9:56 PM 59.0 °F 57.0 °F 93% 30.06 in 10.0 mi Variable 5.8 mph - N/A   Overcast
10:56 PM 57.9 °F 55.9 °F 93% 30.07 in 10.0 mi NW 6.9 mph - N/A   Overcast
11:56 PM 57.9 °F 55.9 °F 93% 30.09 in 10.0 mi NW 9.2 mph - N/A   Overcast